This is the latest recevied weather packets stored in our database for station/object W1HVD. If no packets are shown the sender has not sent any weather packets the latest 10 day(s).
| Time | Temp. | Humidity | Pressure | Rain* | Wind** | Luminosity | Snow |
|---|---|---|---|---|---|---|---|
| 1778159396 | 11.11° C | 96% | 1008.3 hPa | 0 mm | - | 790 W/m² | - |
| 1778159094 | 10.56° C | 97% | 1008.2 hPa | 0 mm | - | 753 W/m² | - |
| 1778158792 | 11.11° C | 98% | 1008 hPa | 0 mm | - | 811 W/m² | - |
| 1778158490 | 10.56° C | 99% | 1008 hPa | 0 mm | - | 897 W/m² | - |
| 1778158187 | 10.56° C | 99% | 1008 hPa | 0 mm | - | 154 W/m² | - |
| 1778157883 | 10° C | 99% | 1008.2 hPa | 0 mm | - | 150 W/m² | - |
| 1778157582 | 10° C | 99% | 1008 hPa | 0 mm | - | 111 W/m² | - |
| 1778157279 | 10° C | 99% | 1008 hPa | 0 mm | - | 137 W/m² | - |
| 1778156975 | 9.44° C | 99% | 1008.6 hPa | 0 mm | - | 120 W/m² | - |
| 1778156670 | 9.44° C | 99% | 1008.4 hPa | 0 mm | - | 76 W/m² | - |
| 1778156367 | 10° C | 99% | 1008.7 hPa | 0 mm | - | 111 W/m² | - |
| 1778156062 | 9.44° C | 99% | 1008.6 hPa | 0 mm | - | 121 W/m² | - |
| 1778155759 | 9.44° C | 99% | 1008.1 hPa | 0 mm | - | 118 W/m² | - |
| 1778155455 | 9.44° C | 99% | 1008.2 hPa | 0 mm | - | 93 W/m² | - |
| 1778155152 | 9.44° C | 99% | 1008 hPa | 0 mm | - | 125 W/m² | - |
| 1778154848 | 8.89° C | 99% | 1008.3 hPa | 0 mm | - | 118 W/m² | - |
| 1778154544 | 8.89° C | 99% | 1008 hPa | 1.78 mm | - | 98 W/m² | - |
| 1778154241 | 8.89° C | 99% | 1008 hPa | 1.78 mm | - | 59 W/m² | - |
| 1778153938 | 8.89° C | 99% | 1007.9 hPa | 1.27 mm | - | 68 W/m² | - |
| 1778153635 | 8.89° C | 99% | 1008 hPa | 1.27 mm | - | 63 W/m² | - |
| 1778153332 | 8.89° C | 99% | 1008.1 hPa | 1.78 mm | - | 42 W/m² | - |
| 1778153029 | 8.89° C | 99% | 1008.2 hPa | 1.78 mm | - | 44 W/m² | - |
| 1778152727 | 8.89° C | 99% | 1008.2 hPa | 0 mm | - | 74 W/m² | - |
| 1778152424 | 8.89° C | 99% | 1007.6 hPa | 1.78 mm | - | 24 W/m² | - |
| 1778152120 | 8.89° C | 99% | 1008.1 hPa | 1.78 mm | - | 58 W/m² | - |
* Rain latest hour (hover to see other rain measurements)
** Current wind speed in m/s (hover to see current wind gust speed)